Other Public Products
Issued by NWS Charleston, SC

Home | Current Version | Previous Version | Text Only | Print | Product List | Glossary On
Versions: 1 2 3 4 5 6 7 8 9 10 11 12 13 14 15 16 17 18 19 20 21 22 23 24 25 26 27 28 29 30 31 32 33 34 35 36 37 38 39 40 41 42 43 44 45 46 47 48 49 50
000
FPUS82 KCHS 230411
OPUCHS

TEST...KCHS/KSAV Gateway Observations...TEST
National Weather Service Charleston SC
1100 PM EST WED FEB 22 2017

NOTE: "fair" indicates few or no clouds below 12,000 feet with no
significant weather and/or obstructions to visibility.

SCZ050-WAZ558-NCZ071-TXZ119-213-PAZ071-DCZ001-FLZ074-172-MI076-
NYZ176-178-MAZ016-IL014-TNZ027-NJZ106-GAZ044-MD014-230500-
...Gateway Observations for Charleston International...

CITY           SKY/WX    TMP DP  RH WIND       PRES   REMARKS
Chas Airport   MOCLDY    61  57  87 NE7       29.87F
Seattle        PTCLDY    38  34  85 N6        30.19S WCI  33
Charlotte      CLOUDY    59  53  80 N6        29.94S
Dallas DFW     CLEAR     65  49  56 SE6       29.71F
Dallas Love    CLEAR     71  48  43 S13       29.73S
Philladelphia  MOCLDY    47  43  86 SW5       29.92S
Wash National  CLOUDY    54  52  93 S5        29.91S
Baltimore      CLOUDY    46  44  93 CALM      29.91S
Miami          LGT RAIN  67  63  87 W5        29.67F
Detroit        MOCLDY    56  54  93 S9        29.70F
Newark         CLOUDY    49  41  74 S3        29.89F
Laguardia      CLOUDY    49  42  77 CALM      29.88F
J F K          CLOUDY    42  42 100 SE3       29.91F
Boston Logan   CLEAR     41  37  86 S6        29.88F
Ft. Lauderdale MOCLDY    66  63  90 W7        29.65F
Chicago O`Hare CLEAR     61  53  75 SW15G28   29.61S
Chicago Midway CLEAR     61  53  75 S15G23    29.62F
Houston Bush   CLEAR     66  50  56 S7        29.80F
Houston Hobby  CLEAR     62  49  62 S8        29.81F
Nashville      CLEAR     59  55  87 CALM      29.85S
Atlanta        MOCLDY    59  58  96 E8        29.89F

$$

GAZ044-118-TXZ119-213-NCZ071-DCZ001-MDZ014-506-PAZ021-071-NJZ106-
NYZ176-178-MAZ106-OHZ011-021-055-MIZ076-KYZ091-ILZ014-INZ047-
MNZ060-ONZ431-230500-
...Gateway Observations for Savannah International...

CITY           SKY/WX    TMP DP  RH WIND       PRES   REMARKS
Savannah Arpt  CLOUDY    63  60  90 NE7       29.84F
Atlanta        MOCLDY    59  58  96 E8        29.89F
Charlotte      CLOUDY    59  53  80 N6        29.94S
Dallas DFW     CLEAR     65  49  56 SE6       29.71F
Houston Bush   CLEAR     66  50  56 S7        29.80F
Wash National  CLOUDY    54  52  93 S5        29.91S
Wash Dulles    CLOUDY    55  50  83 SE5       29.90S
Baltimore      CLOUDY    46  44  93 CALM      29.91S
Philadelphia   MOCLDY    47  43  86 SW5       29.92S
Newark         CLOUDY    49  41  74 S3        29.89F
Laguardia      CLOUDY    49  42  77 CALM      29.88F
J F K          CLOUDY    42  42 100 SE3       29.91F
Boston         CLEAR     41  37  86 S6        29.88F
Pittsburg      MOCLDY    58  52  80 SW7       29.85F
Akron          CLOUDY    56  51  84 S12       29.83F
Cleveland      CLOUDY    59  52  77 S13       29.80F
Cincinnati     CLOUDY    61  56  83 S9        29.80F
Columbus       CLOUDY    56  55  95 S8        29.82S
Detroit        MOCLDY    56  54  93 S9        29.70F
Chicago O`Hare CLEAR     61  53  75 SW15G28   29.61S
Minneapolis    CLOUDY    41  34  76 N16       29.71R
Indianapolis   PTCLDY    59  53  80 S12       29.73F
Toronto Canada MOCLDY    41  41 100 SE9       29.71F FOG

$$




USA.gov is the U.S. government's official web portal to all federal, state and local government web resources and services.